Tuesday, June 19, 2018, 6:44 AM EDT
Back to Local

KUUU, Newport State Airport

Location: Middletown, RI, United States Lat: 41.533
Local Time: 6:44 AM EDT (10:44 GMT) Lon: -71.283
Time Zone: US/Eastern Elev: 170 ft

Show me the last for .
Show Decoded

2018-06-19 05:53 METAR KUUU 190953Z AUTO 00000KT 4SM BR FEW075 BKN090 OVC110 20/20 A2965 RMK AO2
                 RAE03 SLP039 P0000 T02000200 $ =
2018-06-19 05:01 METAR KUUU 190901Z AUTO 00000KT 5SM -RA BR SCT050 OVC075 19/19 A2965 RMK AO2
                 P0000 T01890189 $ =
2018-06-19 04:53 METAR KUUU 190853Z AUTO 16004KT 2 1/2SM RA BR BKN048 BKN070 OVC090 19/18 A2964
                 RMK AO2 RAB37 PRESFR SLP036 P0004 60004 T01890183 56009 $ =
2018-06-19 04:04 METAR KUUU 190804Z AUTO 21003KT 6SM BR SCT004 SCT055 OVC085 18/18 A2967 RMK AO2
                 T01780178 $ =
2018-06-19 03:53 METAR KUUU 190753Z AUTO VRB03KT 6SM BR BKN004 BKN055 OVC090 18/18 A2966 RMK AO2
                 CIG 003V009 SLP041 T01780178 $ =
2018-06-19 03:43 METAR KUUU 190743Z AUTO 20006KT 7SM BKN005 OVC110 18/17 A2966 RMK AO2 CIG
                 003V009 T01780172 $ =
2018-06-19 02:53 METAR KUUU 190653Z AUTO VRB04KT 7SM FEW004 BKN120 18/17 A2967 RMK AO2 SLP045
                 T01780172 $ =
2018-06-19 01:53 METAR KUUU 190553Z AUTO VRB03KT 10SM FEW006 FEW010 SCT110 18/18 A2969 RMK AO2
                 RAB21E45 SLP052 P0000 60003 T01830178 10206 20183 56027 $ =
2018-06-19 01:45 METAR KUUU 190545Z AUTO 20004KT 10SM FEW006 SCT100 18/18 A2970 RMK AO2 RAB21E45
                 P0000 T01830178 $ =
2018-06-19 00:53 METAR KUUU 190453Z AUTO 22007KT 190V290 10SM CLR 19/17 A2970 RMK AO2 SLP056
                 T01940172 402330172 $ =
2018-06-18 23:53 METAR KUUU 190353Z AUTO 21006KT 10SM SCT120 20/18 A2973 RMK AO2 SLP066 T02000183
                 $ =
2018-06-18 22:53 METAR KUUU 190253Z AUTO 18006KT 10SM FEW100 FEW110 19/18 A2977 RMK AO2 RAB10E48
                 SLP079 P0003 60003 T01940183 58008 $ =
2018-06-18 22:38 METAR KUUU 190238Z AUTO 20004KT 6SM -RA BR FEW047 BKN090 BKN110 20/18 A2980 RMK
                 AO2 LTG DSNT E RAB10 P0003 T02000183 $ =
2018-06-18 22:23 METAR KUUU 190223Z AUTO VRB04KT 5SM VCTS -RA BR FEW047 SCT065 BKN120 20/18 A2981
                 RMK AO2 LTG DSNT E RAB10 P0001 T02000178 $ =
2018-06-18 21:53 METAR KUUU 190153Z AUTO 21008G17KT 10SM CLR 20/18 A2980 RMK AO2 LTG DSNT NW
                 SLP088 T02000178 $ =
2018-06-18 20:53 METAR KUUU 190053Z AUTO 20010G18KT 9SM FEW006 19/18 A2980 RMK AO2 PRESRR SLP089
                 T01940183 $ =
2018-06-18 19:53 METAR KUUU 182353Z AUTO 20008G20KT 9SM FEW003 19/18 A2980 RMK AO2 SLP088
                 T01940183 10228 20189 58009 $ =
2018-06-18 19:48 METAR KUUU 182348Z AUTO 20008G18KT 180V260 8SM SCT003 19/18 A2980 RMK AO2 $ =
2018-06-18 18:53 METAR KUUU 182253Z AUTO 20009G20KT 6SM BR BKN003 19/18 A2982 RMK AO2 SLP095
                 T01890183 $ =
2018-06-18 18:29 METAR KUUU 182229Z AUTO 21011G20KT 5SM BR OVC004 19/18 A2981 RMK AO2 T01890183 $
                 =
2018-06-18 18:18 METAR KUUU 182218Z AUTO 21012G19KT 180V250 7SM BKN005 19/18 A2981 RMK AO2
                 T01940183 $ =
2018-06-18 17:53 METAR KUUU 182153Z AUTO 21010G19KT 180V240 9SM FEW006 21/19 A2982 RMK AO2 SLP097
                 T02060189 $ =
2018-06-18 16:53 METAR KUUU 182053Z AUTO 20014G21KT 10SM CLR 21/18 A2984 RMK AO2 SLP101 T02060183
                 56028 =
2018-06-18 15:53 METAR KUUU 181953Z AUTO 21009G22KT 180V250 10SM CLR 22/19 A2986 RMK AO2 PK WND
                 19026/1855 SLP111 T02170194 =
2018-06-18 14:53 METAR KUUU 181853Z AUTO 20014G22KT 10SM CLR 22/19 A2989 RMK AO2 SLP120 T02220194
                 =
2018-06-18 13:53 METAR KUUU 181753Z AUTO 21011G18KT 190V260 10SM CLR 23/18 A2992 RMK AO2 SLP130
                 T02280178 10233 20189 58016 =
2018-06-18 12:53 METAR KUUU 181653Z AUTO 20011G18KT 10SM CLR 23/18 A2994 RMK AO2 SLP137 T02280183
                 =
2018-06-18 11:53 METAR KUUU 181553Z AUTO 20010G21KT 10SM CLR 23/18 A2995 RMK AO2 SLP140 T02280178
                 =
2018-06-18 10:53 METAR KUUU 181453Z AUTO 22009G20KT 190V250 10SM CLR 23/18 A2997 RMK AO2 SLP146
                 T02280178 56015 =
2018-06-18 09:53 METAR KUUU 181353Z AUTO 21010G19KT 10SM CLR 22/18 A2998 RMK AO2 SLP150 T02170183
                 =
2018-06-18 08:53 METAR KUUU 181253Z AUTO 20007G17KT 180V240 10SM CLR 21/18 A3000 RMK AO2 SLP156
                 T02060183 =
2018-06-18 08:14 METAR KUUU 181214Z AUTO 20010G15KT 10SM SCT004 20/18 A3000 RMK AO2 T02000183 =
2018-06-18 07:53 METAR KUUU 181153Z AUTO 19008KT 10SM OVC003 19/18 A3001 RMK AO2 SLP162 T01890183
                 10189 20172 58007 =
2018-06-18 06:53 METAR KUUU 181053Z AUTO 20005KT 6SM BR OVC003 18/18 A3002 RMK AO2 SLP164
                 T01830178 =

Support USWX by starting your Amazon purchase here.